Weather History for Boscombe Down, United Kingdom

Change the Weather History Date:

Tuesday, December 27, 2011

  Actual Average Record
Temperature  
Mean Temperature 46 °F -  
Max Temperature 49 °F 42 °F 53 °F (2007)
Min Temperature 44 °F 34 °F 28 °F (2005)
Degree Days  
Heating Degree Days 18    
Moisture  
Dew Point 41 °F    
Average Humidity 77    
Maximum Humidity 93    
Minimum Humidity 64    
Precipitation  
Precipitation 0.00 in - - ()
Sea Level Pressure  
Sea Level Pressure 30.47 in    
Wind  
Wind Speed 8 mph ()    
Max Wind Speed 15 mph    
Max Gust Speed -    
Visibility 7.3 miles    
Events      
Averages and records for this station are not official NWS values.
T = Trace of Precipitation, MM = Missing Value Source: Averaged Metar Reports

Daily Weather History Graph

Daily Weather History Graph

Search for Another Location

Airport:

Trip Planner

Search our weather history database for the weather conditions in past years. The results will help you decide how hot, cold, wet, or windy it might be!

Date:

Astronomy

Dec. 27, 2011 Rise Set
Actual Time 8:10 AM GMT 4:05 PM GMT
Civil Twilight 7:30 AM GMT 4:45 PM GMT
Nautical Twilight 6:48 AM GMT 5:27 PM GMT
Astronomical Twilight 6:07 AM GMT 6:08 PM GMT
Moon 9:39 AM GMT (12/27) 7:44 PM GMT (12/27)
Length of Visible Light 9h 14m
Length of Day
7h 54m
Waxing Crescent, 9% of the Moon is Illuminated
Dec 27
Waxing Crescent
Jan 1
First Quarter
Jan 9
Full
Jan 16
Last Quarter
Jan 23
New

Hourly Weather History & Observations

Time (GMT) Temp. Windchill Dew Point Humidity Pressure Visibility Wind Dir Wind Speed Gust Speed Precip Events Conditions
12:50 AM 48.2 °F - 41.0 °F 76% 30.51 in 6.2 mi SW 12.7 mph - N/A   Overcast
1:50 AM 48.2 °F - 41.0 °F 76% 30.51 in 6.2 mi SW 9.2 mph - N/A   Overcast
2:50 AM 49 °F - 40 °F 64% 30.54 in 19 mi West 8.1 mph - -   Overcast
2:50 AM 48.2 °F - 41.0 °F 76% 30.51 in 6.2 mi West 8.1 mph - N/A   Overcast
3:50 AM 48.2 °F - 41.0 °F 76% 30.51 in 6.2 mi West 9.2 mph - N/A   Overcast
4:50 AM 48.2 °F - 41.0 °F 76% 30.51 in 6.2 mi WSW 8.1 mph - N/A   Overcast
5:50 AM 48 °F - 41 °F 68% 30.54 in 28 mi WSW 6.9 mph - -   Overcast
5:50 AM 48.2 °F - 41.0 °F 76% 30.51 in 6.2 mi WSW 6.9 mph - N/A   Overcast
6:50 AM 48.2 °F - 41.0 °F 76% 30.54 in 6.2 mi WSW 5.8 mph - N/A   Overcast
7:50 AM 48.2 °F - 41.0 °F 76% 30.54 in 6.2 mi WSW 5.8 mph - N/A   Overcast
8:50 AM 48 °F - 41 °F 68% 30.57 in 28 mi WSW 6.9 mph - -   Overcast
8:50 AM 48.2 °F - 41.0 °F 76% 30.54 in 6.2 mi WSW 6.9 mph - N/A   Overcast
9:50 AM 48.2 °F - 41.0 °F 76% 30.54 in 6.2 mi SW 4.6 mph - N/A   Overcast
10:50 AM 48.2 °F - 42.8 °F 82% 30.54 in 6.2 mi SSW 5.8 mph - N/A   Overcast
11:50 AM 49 °F - 42 °F 71% 30.54 in 22 mi South 5.8 mph - -   Overcast
11:50 AM 48.2 °F - 42.8 °F 82% 30.51 in 6.2 mi South 5.8 mph - N/A   Overcast
12:50 PM 50.0 °F - 42.8 °F 76% 30.51 in 6.2 mi SSW 6.9 mph - N/A   Overcast
1:50 PM 50.0 °F - 42.8 °F 76% 30.48 in 6.2 mi SSW 8.1 mph - N/A   Overcast
2:50 PM 49 °F - 40 °F 64% 30.49 in 25 mi SSW 9.2 mph - -   Overcast
2:50 PM 48.2 °F - 41.0 °F 76% 30.48 in 6.2 mi SSW 9.2 mph - N/A   Overcast
3:50 PM 48.2 °F - 41.0 °F 76% 30.45 in 6.2 mi South 10.4 mph - N/A   Overcast
4:50 PM 48.2 °F - 39.2 °F 71% 30.45 in 6.2 mi South 15.0 mph - N/A   Overcast
5:50 PM 46 °F - 39 °F 69% 30.45 in 25 mi South 10.4 mph - -   Overcast
5:50 PM 46.4 °F 41.5 °F 39.2 °F 76% 30.42 in 6.2 mi South 10.4 mph - N/A   Overcast
6:50 PM 46.4 °F 41.9 °F 39.2 °F 76% 30.42 in 6.2 mi South 9.2 mph - N/A   Overcast
7:50 PM 44.6 °F 39.2 °F 39.2 °F 81% 30.39 in 6.2 mi South 10.4 mph - N/A   Overcast
8:50 PM 45 °F - 40 °F 78% 30.39 in 17 mi South 12.7 mph - -   Overcast
8:50 PM 44.6 °F 38.4 °F 41.0 °F 87% 30.36 in 6.2 mi South 12.7 mph - N/A   Overcast
9:50 PM 44.6 °F 38.8 °F 41.0 °F 87% 30.33 in 6.2 mi South 11.5 mph - N/A   Mostly Cloudy
10:50 PM 44.6 °F 39.2 °F 42.8 °F 93% 30.30 in 6.2 mi South 10.4 mph - N/A   Overcast
11:50 PM 46 °F - 43 °F 85% 30.29 in 11 mi South 10.4 mph - -   Overcast
11:50 PM 46.4 °F 41.5 °F 42.8 °F 87% 30.27 in 6.2 mi South 10.4 mph - N/A   Overcast